www.pogodaiklimat.ru

Погода и климат >> Архив погоды >> Россия >> Свердловская область >> Ирбит


ПОГОДА в Ирбите

  • Прогноз погоды в Ирбите
  • Монитор погоды в Ирбите
  • Климат города

АРХИВ ПОГОДЫ в Ирбите

Время (UTC), дата Ветер
(напр.,м/с)
 
Видим.   Явления Облачность Т
(С)
Тd
(С)
f
(%)
Тe
(С)
Тes
(С)
Комфортность P
(гПа)
Po
(гПа)
Тmin
(С)
Tmax
(С)
R
(мм)
R24
(мм)
S
(см)
09 18.04 ЮЗ 6-11
{13}
50 км 8/8 600 м
[Cb calv Ac trans]
+13.3 -2.2 34 +11 +12 1011.6 1002.7
12 18.04 З 5
{13}
50 км 9/8 600 м
[Sc Ac trans Ci sp]
+12.7 -3.3 33 +11 +11 1012.2 1003.3
15 18.04 ЮЗ 3
{11}
50 км 8/3 600 м
[Sc Ac trans Ci sp]
+10.5 -6.0 31 +9 +9 1012.9 1003.9 +14.4
18 18.04 СЗ 4 50 км ясно +5.8 -7.1 39 +3 +3 1016.1 1006.9
21 18.04 СЗ 1 50 км ясно +2.8 -7.2 48 +2 +2 1017.4 1008.1
00 19.04 СЗ 2 50 км 4/3 600 м
[Sc Ac trans]
+1.0 -5.9 60 -2 -2 1019.0 1009.6
03 19.04 СЗ 4 50 км 9/8 600 м
[Sc Ac trans]
+1.7 -8.6 46 -3 -2 1020.3 1011.0 +0.1
06 19.04 СЗ 4 50 км 4/1 600 м
[Cu hum Ac trans]
+3.9 -11.3 32 +1 +5 1021.2 1011.9
09 19.04 СЗ 5
{12}
50 км 3/3 600 м
[Sc diur, vesp]
+6.4 -10.6 28 +3 +7 1021.1 1011.9
12 19.04 СЗ 3
{10}
50 км 4/0
[Ac trans Ci ing]
+7.4 -11.7 24 +6 +8 1021.9 1012.7
15 19.04 З 2 50 км 6/3 600 м
[Sc diur, vesp Ac trans Ci sp]
+4.3 -11.1 32 +3 +3 1022.7 1013.4 +7.5
18 19.04 ЮЗ 1 50 км 9/9 600 м
[Sc]
+2.9 -9.9 38 +2 +2 1023.8 1014.4
21 19.04 СЗ 2 50 км 10/10 600 м
[Sc]
+1.7 -8.4 47 -1 -1 1024.6 1015.3
00 20.04 СЗ 2 50 км 9/9 600 м
[Sc]
+0.8 -8.5 50 -2 -2 1024.5 1015.1
03 20.04 С 2 50 км 10/0
[Ac As]
+1.5 -8.0 49 -1 -0 1024.0 1014.6 +0.6
06 20.04 ЮВ 2 50 км 10/0
[Ac As]
+4.8 -7.4 41 +3 +6 1023.6 1014.3
09 20.04 В 5 50 км 10/0
[Ac As]
+8.7 -5.7 36 +6 +8 1021.3 1012.2
12 20.04 В 5 50 км 9/6 600 м
[Sc Ac trans]
+10.9 -5.0 32 +9 +9 1018.8 1009.8
15 20.04 ЮЗ 4 50 км 9/3 600 м
[Sc Ac trans Cs]
+7.8 -4.4 42 +5 +5 1016.7 1007.6 +11.1
18 20.04 ЮВ 6
{11}
50 км 10/9 600 м
[Sc Ac As]
+6.5 -3.5 49 +3 +3 1013.5 1004.4
21 20.04 ЮВ 4
{12}
50 км 4/0
[Ci sp]
+5.0 -1.1 65 +1 +1 1008.8 999.7
00 21.04 СЗ 1 50 км 8/3 600 м
[Sc Ac trans Ci sp]
+4.9 +0.7 74 +4 +4 1004.6 995.5
03 21.04 Ю 5-10
{11}
50 км 9/0
[Ac trans Ci sp]
+13.5 +4.1 53 +12 +13 1002.2 993.4 +4.8
06 21.04 Ю 4-11
{11}
50 км 8/3 600 м
[Cu med, cong Ci fib]
+14.2 -0.7 36 +13 +17 1001.8 993.0
09 21.04 З 6-11
{12}
50 км 1/0
[Ci fib]
+12.4 -6.9 25 +10 +14 1002.9 994.0
12 21.04 З 6-11
{13}
50 км 6/0
[Ci fib]
+7.6 -10.7 26 +4 +6 1005.2 996.2
15 21.04 З 5
{12}
50 км 6/4 1000 м
[Sc Ci fib]
+2.8 -10.6 37 -2 -2 1007.0 997.8 +15.0
18 21.04 З 3 50 км ясно -0.0 -8.4 53 -4 -4 1007.5 998.2
21 21.04 З 2 50 км ясно -2.0 -6.8 70 -6 -6 1008.7 999.4
00 22.04 ЮЗ 2 50 км ясно -2.1 -6.4 72 -6 -6 1009.7 1000.4
03 22.04 ЮЗ 4 50 км ясно +1.6 -6.0 57 -3 -1 1010.9 1001.6 -2.4
06 22.04 З 4 50 км 3/1 600 м
[Cu med, cong Ci sp]
+7.2 -10.1 28 +5 +10 1011.6 1002.5
09 22.04 Ю 4
{11}
50 км ясно +9.6 -11.0 22 +8 +15 1011.1 1002.1
12 22.04 З 3
{10}
50 км 1/0
[Ci sp]
+11.3 -12.0 18 +10 +14 1010.5 1001.5
15 22.04 З 2
{12}
н/о н/о +8.1 -10.3 26 +7 +7 1010.8 1001.7 +11.4
18 22.04 В 2 50 км 6/3 600 м
[Sc Ac trans Ci sp]
+7.3 -11.3 25 +6 +6 1010.9 1001.9
21 22.04 З 4 50 км 8/4 600 м
[Sc Ac trans]
+6.3 -9.4 31 +3 +3 1009.9 1000.8
00 23.04 ЮВ 2 50 км 6/3 600 м
[Sc Ac trans Ci sp]
+6.3 -7.2 37 +5 +5 1009.0 1000.0
03 23.04 ЮВ 5 50 км {дождь} 10/3 600 м
[Sc Ac As]
+7.5 -5.9 38 +4 +5 1006.8 997.7 +5.6 0.0
06 23.04 ЮВ 6-10
{11}
50 км {дождь} 10/3 600 м
[Sc Ac As]
+9.7 -6.8 31 +7 +8 1003.9 995.0
09 23.04 ЮВ 6
{12}
50 км 10/4 600 м
[Sc Ac As]
+10.5 -6.1 31 +8 +9 1002.4 993.5
12 23.04 Ю 3
{10}
50 км 10/8 600 м
[Sc Ac As]
+11.4 -6.0 29 +10 +10 1003.0 994.2
15 23.04 ЮЗ 2 50 км 10/10 600 м
[Sc]
+8.3 +0.2 57 +7 +7 1005.3 996.3 +11.7
18 23.04 ЮЗ 2 50 км 10/10 600 м
[Sc]
+6.3 +1.3 70 +4 +4 1007.5 998.4
21 23.04 ЮЗ 2
{10}
50 км 10/10 600 м
[Sc]
+6.1 +1.1 70 +4 +4 1009.7 1000.6
00 24.04 ЮЗ 3 50 км 10/10 600 м
[Sc]
+5.5 +0.4 70 +2 +2 1012.1 1003.0
03 24.04 ЮЗ 4 50 км 4/0
[Ci sp]
+6.2 -1.2 59 +3 +5 1014.3 1005.2 +3.4
06 24.04 Ю 4 50 км 9/8 600 м
[Sc Ci sp]
+10.4 -0.5 47 +8 +10 1015.1 1006.0
09 24.04 СЗ 4 50 км 9/4 600 м
[Cu med, cong Cs]
+14.4 -5.2 25 +13 +17 1014.5 1005.6
12 24.04 Ю 5-11
{11}
50 км 10/5 600 м
[Cb calv As op]
+12.7 -2.2 35 +11 +11 1014.0 1005.1
15 24.04 Ю 3
{11}
20 км слабый дождь 10/8 600 м
[Sc Ac As]
+6.7 +4.9 88 +4 +4 1014.3 1005.2 +14.8 1
18 24.04 ЮВ 5 17 км дождь 10/9 600 м
[Sc Ac As]
+6.5 +5.3 92 +2 +2 1011.8 1002.7
21 24.04 ЮВ 5
{12}
15 км дождь 10/9 600 м
[Sc Ac As]
+6.8 +5.3 90 +3 +3 1007.6 998.5
00 25.04 В 2 50 км {дождь} 10/5 300 м
[Frnb Ac As]
+8.6 +6.1 84 +7 +7 1004.0 995.0
03 25.04 Ю 5
{10}
50 км 10/8 600 м
[Sc Ac As]
+12.3 +8.2 76 +10 +10 1002.2 993.3 +6.4 9

 

Местоположение метеостанции Ирбит (Свердловская область, Россия): широта 57.62 долгота 62.97 высота над уровнем моря 74 м.

В архиве по умолчанию представлена погода в Ирбите за последнюю неделю. Архивные данные за месяц целиком и за предыдущие месяцы, начиная с января 2011 года, Вы можете получить, выбрав интересующий диапазон дат из раскрывающегося списка и нажав кнопку "Ввод!".

Внимание! Время в таблицах - всемирное. Для получения местного времени необходимо прибавить поправку, которая в Ирбите равна 5 ч.

Смотрите также архив погоды в соседних городах и на ближайших метеорологических станциях:

Погода в Туринске (Свердловская область, Россия) (64 км)
Погода в Артемовском (Свердловская область, Россия) (69 км)
Погода в Алапаевске (Свердловская область, Россия) (80 км)
Погода в Камышлове (Свердловская область, Россия) (87 км)
Погода в Тугулыме (Свердловская область, Россия) (119 км)
Погода в Таборах (Свердловская область, Россия) (135 км)
Погода в Тавде (Свердловская область, Россия) (145 км)
Погода в Каменск-Уральском (Свердловская область, Россия) (148 км)
Погода в Далматово (Курганская область, Россия) (150 км)
Погода в Верхнем Дуброво (Свердловская область, Россия) (151 км)

Пояснения к столбцам:

Ветер - указаны скорость ветра в м/с - средняя за 10 мин, порывы в срок и между сроками (в фигурных скобках) и направление, откуда дует ветер: С - северный, СВ - северо-восточный, В - восточный, ЮВ - юго-восточный, Ю - южный, ЮЗ - юго-западный, З - западный, СЗ - северо-западный.
Видимость - горизонтальная дальность видимости в метрах или километрах. При видимости от 1 до 10 км при отсутствии осадков обычно наблюдается дымка, при ухудшении видимости до 1 км и менее - туман. В сухую погоду видимость может ухудшаться дымом, пылью или мглою.
Явления - указаны атмосферные явления, наблюдавшиеся в срок или в последний час перед сроком; фигурными скобками обозначены явления, наблюдавшиеся между сроками (за 1-3 часа до срока); квадратными скобками обозначены град или гололедные отложения с указанием их диаметра в мм.
Облачность - указаны через наклонную черту общая и нижняя облачность в баллах и высота нижней границы облаков в метрах; квадратными скобками обозначены формы облаков: Ci - перистые, Cs - перисто-слоистые, Cc - перисто-кучевые, Ac - высококучевые, As - высокослоистые, Sc - слоисто-кучевые, Ns - слоисто-дождевые, Cu - кучевые, Cb - кучево-дождевые. Подробнее классификацию облаков см. в Атласе облаков (PDF).
T - Температура воздуха - температура, измеренная на высоте 2 м над землей.
Td - Температура точки росы - температура, при понижении до которой содержащийся в воздухе водяной пар достигнет насыщения.
f - Относительная влажность воздуха - влажноcть воздуха, измеренная на высоте 2 м над землей.
Te - Эффективная температура - температура, которую ощущает одетый по сезону человек в тени. Характеристика душности погоды. При расчете учитывается влияние влажности воздуха и скорости ветра на теплоощущения человека.
Tes - Эффективная температура на солнце - температура, которую ощущает человек, с поправкой на солнечный нагрев. Характеристика знойности погоды. Зависит от высоты солнца над горизонтом, облачности и скорости ветра. Ночью, в пасмурную погоду, а также при ветре 12 м/с и более поправка равна нулю.
P - Атмосферное давление - приведенное к уровню моря атмосферное давление.
Po - Атмосферное давление - измеренное на уровне метеостанции атмосферное давление.
Tmin - Минимальная температура - минимум температуры воздуха на высоте 2 м над землей.
Tmax - Максимальная температура - максимум температуры воздуха на высоте 2 м над землей.
R - Количество осадков - Количество выпавших осадков за период времени, мм. При наведении курсора мыши на число - период времени, за который выпало указанное количество осадков.
R24 - Количество осадков - Количество выпавших осадков за 24 часа, мм.
S - Снежный покров - Высота снежного покрова, см. При наведении курсора мыши на число - состояние снежного покрова и степень покрытия местности в баллах.